Location: Caltech
(34.1382°N, 118.1253°W)
Time: 00:24:21
(UTC-07:00)

Oscar 11 - Visible Passes

Search period start: 25 May 2015 00:00
Search period end: 04 June 2015 00:00
Orbit: 615 x 628 km, 97.8° (Epoch: 24 May)

Date Brightness Start Highest point End Pass type
(mag) Time Alt. Az. Time Alt. Az. Time Alt. Az.
25 May 8.3 21:04:11 18° ESE 21:06:03 25° ENE 21:09:38 10° NNE visible
25 May 8.9 22:41:22 22° WSW 22:42:11 23° W 22:45:34 10° NW visible
26 May 7.7 21:22:08 28° ESE 21:23:46 39° ENE 21:27:50 10° N visible
26 May 9.5 22:59:20 14° WSW 23:00:09 14° W 23:02:22 10° WNW visible
27 May 7.1 21:40:05 40° SE 21:41:31 66° ENE 21:45:50 10° N visible
28 May 7.1 21:58:02 45° S 21:59:18 75° WSW 22:03:38 10° NNW visible
29 May 9.1 20:39:19 10° E 20:41:17 13° ENE 20:43:29 10° NE visible
29 May 7.9 22:16:00 36° SW 22:17:08 44° W 22:21:16 10° NNW visible
30 May 8.6 20:56:45 14° ESE 20:58:58 21° ENE 21:02:16 10° NNE visible
30 May 8.6 22:33:57 25° WSW 22:35:01 27° W 22:38:41 10° NW visible
31 May 8.0 21:14:42 22° ESE 21:16:40 33° ENE 21:20:34 10° N visible
31 May 9.3 22:51:54 16° WSW 22:52:58 17° W 22:55:42 10° NW visible
01 Jun 7.3 21:32:39 32° SE 21:34:24 54° ENE 21:38:38 10° N visible
01 Jun 9.8 23:10:25 10° W 23:10:58 10° W 23:11:12 10° W visible
02 Jun 7.0 21:50:37 40° SSE 21:52:10 89° E 21:56:30 10° NNW visible
03 Jun 9.2 20:33:07 10° E 20:34:12 11° ENE 20:35:32 10° NE visible
03 Jun 7.6 22:08:34 37° SSW 22:09:58 54° W 22:14:13 10° NNW visible
